Weather History for Beatrice, NE

Change the Weather History Date:

Sunday, March 9, 2014

  Actual Average Record
Temperature  
Mean Temperature 46 °F -  
Max Temperature 70 °F 49 °F 75 °F (1977)
Min Temperature 23 °F 27 °F 6 °F (1998)
Degree Days  
Heating Degree Days 18    
Moisture  
Dew Point 25 °F    
Average Humidity 46    
Maximum Humidity 71    
Minimum Humidity 19    
Precipitation  
Precipitation 0.00 in - - ()
Sea Level Pressure  
Sea Level Pressure 30.04 in    
Wind  
Wind Speed 11 mph (SSW)    
Max Wind Speed 30 mph    
Max Gust Speed 39 mph    
Visibility 10 miles    
Events      
Averages and records for this station are not official NWS values.
T = Trace of Precipitation, MM = Missing Value Source: NWS Daily Summary

Daily Weather History Graph

Daily Weather History Graph

Search for Another Location

Airport:

Trip Planner

Search our weather history database for the weather conditions in past years. The results will help you decide how hot, cold, wet, or windy it might be!

Date:

Astronomy

Mar. 09, 2014 Rise Set
Actual Time 7:48 AM CDT 7:27 PM CDT
Civil Twilight 7:21 AM CDT 7:54 PM CDT
Nautical Twilight 6:49 AM CDT 8:26 PM CDT
Astronomical Twilight 6:17 AM CDT 8:57 PM CDT
Moon 1:20 PM CDT (3/9) 3:15 AM CDT (3/9)
Length of Visible Light 12h 33m
Length of Day
11h 39m
First Quarter, 61% of the Moon is Illuminated
Mar 9
First Quarter
Mar 16
Full
Mar 23
Last Quarter
Mar 30
New
Apr 7
First Quarter

Hourly Weather History & Observations

Time (CDT) Temp. Windchill Dew Point Humidity Pressure Visibility Wind Dir Wind Speed Gust Speed Precip Events Conditions
12:15 AM 27.5 °F 20.2 °F 15.8 °F 61% 30.27 in 10.0 mi South 6.9 mph - N/A   Clear
12:35 AM 26.8 °F 18.5 °F 16.7 °F 66% 30.26 in 10.0 mi South 8.1 mph - N/A   Clear
12:55 AM 27.1 °F 18.9 °F 17.1 °F 66% 30.26 in 10.0 mi SSW 8.1 mph - N/A   Clear
1:15 AM 26.4 °F 20.9 °F 16.7 °F 67% 30.26 in 10.0 mi SSW 4.6 mph - N/A   Clear
1:35 AM 25.5 °F - 16.0 °F 67% 30.26 in 10.0 mi Calm Calm - N/A   Clear
1:55 AM 24.6 °F - 15.8 °F 69% 30.26 in 10.0 mi Calm Calm - N/A   Clear
3:15 AM 24.1 °F 18.2 °F 15.4 °F 70% 30.25 in 10.0 mi SSW 4.6 mph - N/A   Clear
3:35 AM 23.9 °F 15.8 °F 15.8 °F 71% 30.24 in 10.0 mi South 6.9 mph - N/A   Clear
3:55 AM 26.2 °F 17.8 °F 17.6 °F 70% 30.22 in 10.0 mi South 8.1 mph - N/A   Clear
4:15 AM 26.2 °F 18.6 °F 17.4 °F 69% 30.21 in 10.0 mi SSW 6.9 mph - N/A   Clear
4:35 AM 25.5 °F 17.8 °F 17.1 °F 70% 30.20 in 10.0 mi South 6.9 mph - N/A   Clear
4:55 AM 24.8 °F 16.9 °F 16.3 °F 70% 30.19 in 10.0 mi South 6.9 mph - N/A   Clear
5:15 AM 25.5 °F 17.8 °F 16.7 °F 69% 30.19 in 10.0 mi South 6.9 mph - N/A   Clear
5:35 AM 25.7 °F 17.1 °F 16.9 °F 69% 30.18 in 7.0 mi South 8.1 mph - N/A   Clear
5:55 AM 27.1 °F 19.7 °F 16.7 °F 65% 30.18 in 10.0 mi South 6.9 mph - N/A   Clear
6:15 AM 26.4 °F 19.8 °F 16.7 °F 67% 30.19 in 7.0 mi South 5.8 mph - N/A   Clear
6:35 AM 27.0 °F 20.5 °F 16.7 °F 65% 30.19 in 10.0 mi South 5.8 mph - N/A   Clear
6:55 AM 26.8 °F 20.2 °F 16.9 °F 66% 30.18 in 10.0 mi SSE 5.8 mph - N/A   Clear
7:15 AM 27.0 °F 20.5 °F 17.4 °F 67% 30.18 in 10.0 mi South 5.8 mph - N/A   Clear
7:35 AM 26.6 °F 20.0 °F 17.4 °F 68% 30.18 in 10.0 mi South 5.8 mph - N/A   Clear
7:55 AM 27.1 °F 20.7 °F 18.1 °F 69% 30.16 in 10.0 mi South 5.8 mph - N/A   Clear
8:15 AM 28.4 °F 22.2 °F 18.3 °F 66% 30.17 in 10.0 mi South 5.8 mph - N/A   Clear
8:35 AM 30.0 °F 23.2 °F 19.4 °F 65% 30.16 in 10.0 mi South 6.9 mph - N/A   Clear
8:55 AM 31.6 °F 24.4 °F 20.3 °F 63% 30.16 in 10.0 mi South 8.1 mph - N/A   Clear
9:15 AM 33.4 °F 25.9 °F 21.9 °F 63% 30.15 in 10.0 mi South 9.2 mph - N/A   Clear
9:35 AM 36.3 °F 29.5 °F 23.4 °F 59% 30.15 in 10.0 mi SSW 9.2 mph - N/A   Clear
9:55 AM 39.2 °F 33.0 °F 24.8 °F 56% 30.15 in 10.0 mi SSW 9.2 mph - N/A   Clear
10:15 AM 42.1 °F 37.1 °F 26.1 °F 53% 30.15 in 10.0 mi SSW 8.1 mph - N/A   Clear
10:35 AM 45.3 °F 39.3 °F 27.3 °F 49% 30.13 in 10.0 mi SSW 12.7 mph - N/A   Clear
10:55 AM 47.1 °F - 27.9 °F 47% 30.12 in 10.0 mi SW 13.8 mph - N/A   Clear
11:15 AM 49.1 °F - 28.2 °F 44% 30.12 in 10.0 mi SSW 13.8 mph - N/A   Clear
11:35 AM 50.7 °F - 28.4 °F 42% 30.12 in 10.0 mi SW 13.8 mph - N/A   Clear
11:55 AM 53.8 °F - 29.1 °F 39% 30.10 in 10.0 mi SW 17.3 mph - N/A   Clear
12:15 PM 56.1 °F - 29.8 °F 37% 30.08 in 10.0 mi SSW 18.4 mph 24.2 mph N/A   Clear
12:35 PM 58.6 °F - 30.0 °F 34% 30.05 in 10.0 mi SSW 18.4 mph 25.3 mph N/A   Clear
12:55 PM 59.5 °F - 29.7 °F 32% 30.04 in 10.0 mi SSW 21.9 mph 28.8 mph N/A   Clear
1:15 PM 61.2 °F - 29.7 °F 30% 30.02 in 10.0 mi SW 24.2 mph 36.8 mph N/A   Clear
1:35 PM 62.4 °F - 29.8 °F 29% 30.01 in 10.0 mi SW 27.6 mph 34.5 mph N/A   Clear
1:55 PM 63.9 °F - 29.7 °F 28% 30.00 in 10.0 mi SSW 26.5 mph 32.2 mph N/A   Clear
2:15 PM 64.8 °F - 29.5 °F 27% 29.98 in 10.0 mi SW 24.2 mph 34.5 mph N/A   Clear
2:35 PM 66.0 °F - 28.8 °F 25% 29.96 in 10.0 mi SW 29.9 mph 36.8 mph N/A   Clear
2:55 PM 68.0 °F - 28.6 °F 23% 29.95 in 10.0 mi SW 26.5 mph 34.5 mph N/A   Clear
3:15 PM 68.2 °F - 27.5 °F 22% 29.94 in 10.0 mi SW 24.2 mph 36.8 mph N/A   Clear
3:35 PM 68.9 °F - 27.7 °F 21% 29.92 in 10.0 mi SW 26.5 mph 35.7 mph N/A   Clear
3:55 PM 69.6 °F - 27.3 °F 21% 29.91 in 10.0 mi SW 24.2 mph 34.5 mph N/A   Clear
4:15 PM 69.4 °F - 26.8 °F 20% 29.90 in 10.0 mi SW 29.9 mph 34.5 mph N/A   Clear
4:35 PM 69.8 °F - 26.6 °F 20% 29.89 in 10.0 mi SW 26.5 mph 39.1 mph N/A   Clear
4:55 PM 70.3 °F - 26.4 °F 19% 29.88 in 10.0 mi SW 27.6 mph 34.5 mph N/A   Clear
5:15 PM 69.6 °F - 26.2 °F 20% 29.88 in 10.0 mi SW 27.6 mph 33.4 mph N/A   Clear
5:35 PM 69.6 °F - 26.6 °F 20% 29.87 in 10.0 mi SW 20.7 mph 28.8 mph N/A   Clear
5:55 PM 68.9 °F - 27.1 °F 21% 29.87 in 10.0 mi SW 17.3 mph 26.5 mph N/A   Clear
6:15 PM 68.4 °F - 27.3 °F 22% 29.88 in 10.0 mi SW 18.4 mph 25.3 mph N/A   Clear
6:35 PM 67.1 °F - 27.3 °F 22% 29.88 in 10.0 mi SW 17.3 mph 25.3 mph N/A   Clear
6:55 PM 65.3 °F - 27.5 °F 24% 29.88 in 10.0 mi SW 16.1 mph - N/A   Clear
7:15 PM 63.5 °F - 27.5 °F 26% 29.88 in 10.0 mi SW 10.4 mph - N/A   Clear
7:35 PM 59.9 °F - 28.0 °F 30% 29.88 in 10.0 mi SSW 8.1 mph - N/A   Clear
7:55 PM 57.4 °F - 29.3 °F 34% 29.88 in 10.0 mi SSW 9.2 mph - N/A   Clear
8:15 PM 57.4 °F - 30.0 °F 35% 29.88 in 10.0 mi SSW 11.5 mph - N/A   Clear
8:35 PM 57.2 °F - 29.7 °F 35% 29.88 in 10.0 mi SSW 11.5 mph - N/A   Clear
8:55 PM 57.2 °F - 29.3 °F 35% 29.88 in 10.0 mi SSW 12.7 mph - N/A   Clear
9:15 PM 55.4 °F - 29.3 °F 37% 29.87 in 10.0 mi SSW 12.7 mph - N/A   Clear
9:35 PM 53.6 °F - 29.7 °F 40% 29.87 in 10.0 mi SSW 10.4 mph - N/A   Clear
9:55 PM 52.9 °F - 30.2 °F 42% 29.87 in 10.0 mi SSW 12.7 mph - N/A   Clear
10:15 PM 52.0 °F - 30.6 °F 44% 29.87 in 10.0 mi SSW 13.8 mph 18.4 mph N/A   Clear
10:35 PM 52.7 °F - 30.7 °F 43% 29.87 in 10.0 mi SSW 12.7 mph - N/A   Clear
10:55 PM 51.8 °F - 30.4 °F 44% 29.87 in 10.0 mi SSW 12.7 mph - N/A   Clear
11:15 PM 50.9 °F - 30.2 °F 45% 29.87 in 10.0 mi SSW 11.5 mph - N/A   Clear
11:35 PM 50.0 °F - 30.0 °F 46% 29.87 in 10.0 mi SSW 10.4 mph - N/A   Clear
11:55 PM 48.6 °F - 29.7 °F 48% 29.86 in 10.0 mi South 8.1 mph - N/A   Clear
12:15 AM 48.0 °F - 29.1 °F 48% 29.86 in 10.0 mi South 6.9 mph - N/A   Clear
12:35 AM 48.6 °F - 28.8 °F 46% 29.85 in 10.0 mi SSW 5.8 mph - N/A   Clear
12:55 AM 50.0 °F - 28.4 °F 43% 29.85 in 10.0 mi SSW 8.1 mph - N/A   Clear